Tracking 20621 objects as of 31-Mar-2020
HD Live streaming from Space Station
objects crossing your sky now

ARIANE 1 DEB

Track ARIANE 1 DEB now!


NORAD ID: 40782
Int'l Code: 1979-104AK
Perigee: 789.9 km
Apogee: 36,588.0 km
Inclination: 15.9 °
Period: 658.0 minutes
Semi major axis: 25059 km
RCS: Unknown
Launch date: December 24, 1979
Source: European Space Agency (ESA)
Launch site: FRENCH GUIANA (FRGUI)

Note: This is SATELLITE DEBRIS
aabbcc
Your satellite tracking list
Your tracking list is empty




NASA's NSSDC Master Catalog

Two Line Element Set (TLE):
1 40782U 79104AK  19313.10822468 +.00001115 +00000-0 +53591-1 0  9992
2 40782 015.9158 192.6997 7142485 189.7875 356.8508 02.18842863148887
Source of the keplerian elements: AFSPC